TimeCDT,TemperatureF,Dew PointF,Humidity,Sea Level PressureIn,VisibilityMPH,Wind Direction,Wind SpeedMPH,Gust SpeedMPH,PrecipitationIn,Events,Conditions,WindDirDegrees,DateUTC
12:56 AM,60.1,54.0,80,30.03,10.0,North,3.5,-,N/A,,Clear,360,2013-06-30 05:56:00
1:56 AM,60.1,53.1,78,30.04,10.0,North,5.8,-,N/A,,Clear,360,2013-06-30 06:56:00
2:56 AM,57.9,53.1,84,30.05,10.0,NNE,3.5,-,N/A,,Clear,20,2013-06-30 07:56:00
3:56 AM,55.9,52.0,87,30.05,10.0,Calm,Calm,-,N/A,,Clear,0,2013-06-30 08:56:00
4:56 AM,57.0,53.1,87,30.06,10.0,NNE,4.6,-,N/A,,Clear,30,2013-06-30 09:56:00
5:56 AM,54.0,52.0,93,30.08,10.0,Calm,Calm,-,N/A,,Scattered Clouds,0,2013-06-30 10:56:00
6:56 AM,57.9,53.1,84,30.09,10.0,NNE,3.5,-,N/A,,Mostly Cloudy,30,2013-06-30 11:56:00
7:56 AM,61.0,55.0,81,30.10,10.0,NNE,4.6,-,N/A,,Scattered Clouds,30,2013-06-30 12:56:00
8:56 AM,64.0,57.0,78,30.12,10.0,NNE,8.1,-,N/A,,Partly Cloudy,30,2013-06-30 13:56:00
9:56 AM,68.0,54.0,61,30.12,10.0,NE,6.9,-,N/A,,Clear,50,2013-06-30 14:56:00
10:56 AM,70.0,54.0,57,30.13,10.0,NE,8.1,-,N/A,,Clear,40,2013-06-30 15:56:00
11:56 AM,71.1,48.9,45,30.13,10.0,ENE,5.8,-,N/A,,Clear,60,2013-06-30 16:56:00
12:56 PM,72.0,50.0,46,30.14,10.0,East,6.9,-,N/A,,Clear,80,2013-06-30 17:56:00
1:56 PM,73.9,51.1,45,30.13,10.0,East,5.8,-,N/A,,Partly Cloudy,80,2013-06-30 18:56:00
2:56 PM,73.9,51.1,45,30.13,10.0,ENE,8.1,-,N/A,,Scattered Clouds,60,2013-06-30 19:56:00
3:56 PM,75.9,52.0,43,30.12,10.0,ENE,3.5,-,N/A,,Scattered Clouds,60,2013-06-30 20:56:00
4:56 PM,75.2,51.8,44,30.12,10.0,NNE,8.1,-,N/A,,Mostly Cloudy,30,2013-06-30 21:56:00
5:56 PM,73.4,53.6,50,30.12,7.0,NE,9.2,16.1,N/A,,Mostly Cloudy,50,2013-06-30 22:56:00
6:56 PM,71.6,53.6,53,30.12,6.0,ENE,10.4,-,N/A,,Haze,60,2013-06-30 23:56:00
7:56 PM,69.8,53.6,56,30.12,9.0,NE,6.9,-,N/A,,Mostly Cloudy,40,2013-07-01 00:56:00
8:56 PM,66.2,53.6,64,30.12,9.0,North,4.6,-,N/A,,Scattered Clouds,10,2013-07-01 01:56:00
9:56 PM,62.6,51.8,68,30.14,9.0,Calm,Calm,-,N/A,,Partly Cloudy,0,2013-07-01 02:56:00
10:56 PM,60.1,52.0,75,30.17,10.0,Calm,Calm,-,N/A,,Clear,0,2013-07-01 03:56:00
11:56 PM,59.0,51.1,75,30.17,10.0,Calm,Calm,-,N/A,,Clear,0,2013-07-01 04:56:00